Time,TemperatureF,DewpointF,PressureIn,WindDirection,WindDirectionDegrees,WindSpeedMPH,WindSpeedGustMPH,Humidity,HourlyPrecipIn,Conditions,Clouds,dailyrainin,SoftwareType,DateUTC
2013-01-15 00:07:00,16.0,11.0,30.43,SSW,207,0.0,-999.0,80,-99.99,,,0.00,weatherlink.com 1.10,2013-01-15 06:07:00,
2013-01-15 00:22:00,15.4,11.0,30.43,SSW,207,0.0,-999.0,82,-99.99,,,0.00,weatherlink.com 1.10,2013-01-15 06:22:00,
2013-01-15 00:37:00,15.3,11.0,30.43,SSW,207,0.0,-999.0,82,-99.99,,,0.00,weatherlink.com 1.10,2013-01-15 06:37:00,
2013-01-15 00:52:00,15.4,11.0,30.43,SSW,207,0.0,-999.0,82,-99.99,,,0.00,weatherlink.com 1.10,2013-01-15 06:52:00,
2013-01-15 01:07:00,15.2,11.0,30.43,SSW,207,0.0,-999.0,82,-99.99,,,0.00,weatherlink.com 1.10,2013-01-15 07:07:00,
2013-01-15 01:22:00,14.6,10.0,30.43,SSW,207,0.0,-999.0,83,-99.99,,,0.00,weatherlink.com 1.10,2013-01-15 07:22:00,
2013-01-15 01:37:00,14.9,11.0,30.43,SSW,207,0.0,-999.0,83,-99.99,,,0.00,weatherlink.com 1.10,2013-01-15 07:37:00,
2013-01-15 01:52:00,15.5,12.0,30.42,SSW,207,0.0,-999.0,84,-99.99,,,0.00,weatherlink.com 1.10,2013-01-15 07:52:00,
2013-01-15 02:07:00,15.8,11.0,30.42,SSW,207,0.0,-999.0,81,-99.99,,,0.00,weatherlink.com 1.10,2013-01-15 08:07:00,
2013-01-15 02:22:00,15.0,10.0,30.42,SSW,207,0.0,-999.0,81,-99.99,,,0.00,weatherlink.com 1.10,2013-01-15 08:22:00,
2013-01-15 02:37:00,14.8,10.0,30.42,SSW,207,0.0,-999.0,82,-99.99,,,0.00,weatherlink.com 1.10,2013-01-15 08:37:00,
2013-01-15 02:52:00,14.2,10.0,30.41,SSW,207,1.0,-999.0,83,-99.99,,,0.00,weatherlink.com 1.10,2013-01-15 08:52:00,
2013-01-15 03:07:00,14.7,11.0,30.41,SSW,207,0.0,-999.0,84,-99.99,,,0.00,weatherlink.com 1.10,2013-01-15 09:07:00,
2013-01-15 03:23:00,15.3,11.0,30.41,SSW,207,0.0,-999.0,83,-99.99,,,0.00,weatherlink.com 1.10,2013-01-15 09:23:00,
2013-01-15 03:38:00,15.4,11.0,30.40,SSW,207,0.0,-999.0,82,-99.99,,,0.00,weatherlink.com 1.10,2013-01-15 09:38:00,
2013-01-15 03:53:00,15.2,10.0,30.40,SSW,207,0.0,-999.0,81,-99.99,,,0.00,weatherlink.com 1.10,2013-01-15 09:53:00,
2013-01-15 04:08:00,14.3,10.0,30.39,SSW,207,0.0,-999.0,82,-99.99,,,0.00,weatherlink.com 1.10,2013-01-15 10:08:00,
2013-01-15 04:23:00,13.8,10.0,30.39,SSW,207,0.0,-999.0,83,-99.99,,,0.00,weatherlink.com 1.10,2013-01-15 10:23:00,
2013-01-15 04:38:00,13.1,9.0,30.39,SSW,207,0.0,-999.0,83,-99.99,,,0.00,weatherlink.com 1.10,2013-01-15 10:38:00,
2013-01-15 04:53:00,13.8,10.0,30.38,SSW,207,0.0,-999.0,86,-99.99,,,0.00,weatherlink.com 1.10,2013-01-15 10:53:00,
2013-01-15 05:08:00,13.4,9.0,30.38,SSW,207,0.0,-999.0,83,-99.99,,,0.00,weatherlink.com 1.10,2013-01-15 11:08:00,
2013-01-15 05:23:00,13.5,10.0,30.38,SSW,207,0.0,-999.0,85,-99.99,,,0.00,weatherlink.com 1.10,2013-01-15 11:23:00,
2013-01-15 05:38:00,13.2,10.0,30.38,SSW,207,0.0,-999.0,85,-99.99,,,0.00,weatherlink.com 1.10,2013-01-15 11:38:00,
2013-01-15 05:53:00,13.4,10.0,30.38,SSW,207,0.0,-999.0,87,-99.99,,,0.00,weatherlink.com 1.10,2013-01-15 11:53:00,
2013-01-15 06:08:00,13.7,11.0,30.39,SSW,207,0.0,-999.0,87,-99.99,,,0.00,weatherlink.com 1.10,2013-01-15 12:08:00,
2013-01-15 06:23:00,13.7,10.0,30.39,SSW,207,0.0,-999.0,86,-99.99,,,0.00,weatherlink.com 1.10,2013-01-15 12:23:00,
2013-01-15 06:38:00,13.5,10.0,30.38,SSW,207,0.0,-999.0,86,-99.99,,,0.00,weatherlink.com 1.10,2013-01-15 12:38:00,
2013-01-15 06:53:00,13.6,11.0,30.39,SSW,207,0.0,-999.0,88,-99.99,,,0.00,weatherlink.com 1.10,2013-01-15 12:53:00,
2013-01-15 07:08:00,14.4,11.0,30.39,SSW,207,0.0,-999.0,87,-99.99,,,0.00,weatherlink.com 1.10,2013-01-15 13:08:00,
2013-01-15 07:23:00,14.7,12.0,30.39,SSW,207,0.0,-999.0,87,-99.99,,,0.00,weatherlink.com 1.10,2013-01-15 13:23:00,
2013-01-15 07:38:00,15.2,12.0,30.39,SSW,207,0.0,-999.0,86,-99.99,,,0.00,weatherlink.com 1.10,2013-01-15 13:38:00,
2013-01-15 07:53:00,15.0,11.0,30.39,SSW,207,0.0,-999.0,85,-99.99,,,0.00,weatherlink.com 1.10,2013-01-15 13:53:00,
2013-01-15 08:08:00,15.0,12.0,30.40,SSW,207,0.0,-999.0,86,-99.99,,,0.00,weatherlink.com 1.10,2013-01-15 14:08:00,
2013-01-15 08:23:00,15.4,12.0,30.39,SSW,207,0.0,-999.0,87,-99.99,,,0.00,weatherlink.com 1.10,2013-01-15 14:23:00,
2013-01-15 08:38:00,17.4,15.0,30.40,SSW,207,0.0,-999.0,89,-99.99,,,0.00,weatherlink.com 1.10,2013-01-15 14:38:00,
2013-01-15 08:53:00,20.2,17.0,30.40,SSW,207,1.0,-999.0,86,-99.99,,,0.00,weatherlink.com 1.10,2013-01-15 14:53:00,
2013-01-15 09:08:00,23.0,18.0,30.40,SSW,207,0.0,-999.0,81,-99.99,,,0.00,weatherlink.com 1.10,2013-01-15 15:08:00,
2013-01-15 09:23:00,25.5,19.0,30.39,SSW,207,0.0,-999.0,77,-99.99,,,0.00,weatherlink.com 1.10,2013-01-15 15:23:00,
2013-01-15 09:38:00,27.2,19.0,30.39,SSW,207,0.0,-999.0,72,-99.99,,,0.00,weatherlink.com 1.10,2013-01-15 15:38:00,
2013-01-15 09:53:00,28.3,18.0,30.38,SSW,207,0.0,-999.0,66,-99.99,,,0.00,weatherlink.com 1.10,2013-01-15 15:53:00,
2013-01-15 10:08:00,27.9,16.0,30.37,SSW,203,3.0,-999.0,62,-99.99,,,0.00,weatherlink.com 1.10,2013-01-15 16:08:00,
2013-01-15 10:23:00,28.3,17.0,30.37,SSW,209,0.0,-999.0,63,-99.99,,,0.00,weatherlink.com 1.10,2013-01-15 16:23:00,
2013-01-15 10:38:00,29.6,18.0,30.37,South,186,2.0,-999.0,61,-99.99,,,0.00,weatherlink.com 1.10,2013-01-15 16:38:00,
2013-01-15 10:53:00,30.5,18.0,30.36,South,177,0.0,-999.0,60,-99.99,,,0.00,weatherlink.com 1.10,2013-01-15 16:53:00,
2013-01-15 11:09:00,31.4,18.0,30.36,SSW,194,0.0,-999.0,59,-99.99,,,0.00,weatherlink.com 1.10,2013-01-15 17:09:00,
2013-01-15 11:24:00,32.3,18.0,30.35,SSW,206,0.0,-999.0,57,-99.99,,,0.00,weatherlink.com 1.10,2013-01-15 17:24:00,
2013-01-15 11:39:00,32.9,18.0,30.34,SW,223,0.0,-999.0,54,-99.99,,,0.00,weatherlink.com 1.10,2013-01-15 17:39:00,
2013-01-15 11:54:00,33.9,19.0,30.33,SSE,168,2.0,-999.0,54,-99.99,,,0.00,weatherlink.com 1.10,2013-01-15 17:54:00,
2013-01-15 12:09:00,34.8,18.0,30.32,South,179,1.0,-999.0,50,-99.99,,,0.00,weatherlink.com 1.10,2013-01-15 18:09:00,
2013-01-15 12:24:00,34.8,18.0,30.31,SW,215,0.0,-999.0,50,-99.99,,,0.00,weatherlink.com 1.10,2013-01-15 18:24:00,
2013-01-15 12:39:00,35.4,18.0,30.29,SSE,161,0.0,-999.0,49,-99.99,,,0.00,weatherlink.com 1.10,2013-01-15 18:39:00,
2013-01-15 12:54:00,36.0,17.0,30.29,SW,220,4.0,-999.0,47,-99.99,,,0.00,weatherlink.com 1.10,2013-01-15 18:54:00,
2013-01-15 13:09:00,36.5,17.0,30.28,SW,236,2.0,-999.0,45,-99.99,,,0.00,weatherlink.com 1.10,2013-01-15 19:09:00,
2013-01-15 13:24:00,37.0,18.0,30.27,SSE,167,1.0,-999.0,46,-99.99,,,0.00,weatherlink.com 1.10,2013-01-15 19:24:00,
2013-01-15 13:54:00,37.0,17.0,30.26,South,176,6.0,-999.0,45,-99.99,,,0.00,weatherlink.com 1.10,2013-01-15 19:54:00,
2013-01-15 14:09:00,37.5,17.0,30.26,WSW,250,2.0,-999.0,44,-99.99,,,0.00,weatherlink.com 1.10,2013-01-15 20:09:00,
2013-01-15 14:24:00,37.5,18.0,30.25,WSW,256,9.0,-999.0,45,-99.99,,,0.00,weatherlink.com 1.10,2013-01-15 20:24:00,
2013-01-15 14:39:00,37.1,18.0,30.25,SSE,150,3.0,-999.0,46,-99.99,,,0.00,weatherlink.com 1.10,2013-01-15 20:39:00,
2013-01-15 14:54:00,37.4,19.0,30.25,South,171,4.0,-999.0,47,-99.99,,,0.00,weatherlink.com 1.10,2013-01-15 20:54:00,
2013-01-15 15:09:00,37.2,18.0,30.24,SSW,200,0.0,-999.0,47,-99.99,,,0.00,weatherlink.com 1.10,2013-01-15 21:09:00,
2013-01-15 15:24:00,37.4,19.0,30.24,SW,219,1.0,-999.0,48,-99.99,,,0.00,weatherlink.com 1.10,2013-01-15 21:24:00,
2013-01-15 15:39:00,36.6,19.0,30.24,SSW,194,1.0,-999.0,49,-99.99,,,0.00,weatherlink.com 1.10,2013-01-15 21:39:00,
2013-01-15 15:54:00,35.6,19.0,30.24,South,182,5.0,-999.0,51,-99.99,,,0.00,weatherlink.com 1.10,2013-01-15 21:54:00,
2013-01-15 16:09:00,35.3,19.0,30.24,South,175,3.0,-999.0,52,-99.99,,,0.00,weatherlink.com 1.10,2013-01-15 22:09:00,
2013-01-15 16:24:00,35.0,19.0,30.23,South,175,0.0,-999.0,53,-99.99,,,0.00,weatherlink.com 1.10,2013-01-15 22:24:00,
2013-01-15 16:40:00,34.5,19.0,30.23,South,177,3.0,-999.0,54,-99.99,,,0.00,weatherlink.com 1.10,2013-01-15 22:40:00,
2013-01-15 16:55:00,33.9,20.0,30.22,SSE,156,0.0,-999.0,56,-99.99,,,0.00,weatherlink.com 1.10,2013-01-15 22:55:00,
2013-01-15 17:10:00,33.2,19.0,30.22,SSE,156,0.0,-999.0,57,-99.99,,,0.00,weatherlink.com 1.10,2013-01-15 23:10:00,
2013-01-15 17:25:00,32.3,20.0,30.21,SSE,156,0.0,-999.0,60,-99.99,,,0.00,weatherlink.com 1.10,2013-01-15 23:25:00,
2013-01-15 17:40:00,31.4,20.0,30.22,SSE,156,0.0,-999.0,62,-99.99,,,0.00,weatherlink.com 1.10,2013-01-15 23:40:00,
2013-01-15 17:55:00,30.6,19.0,30.21,SSE,156,0.0,-999.0,63,-99.99,,,0.00,weatherlink.com 1.10,2013-01-15 23:55:00,
2013-01-15 18:10:00,29.6,19.0,30.21,SSE,156,0.0,-999.0,65,-99.99,,,0.00,weatherlink.com 1.10,2013-01-16 00:10:00,
2013-01-15 18:24:00,28.9,19.0,30.21,SSE,156,0.0,-999.0,67,-99.99,,,0.00,weatherlink.com 1.10,2013-01-16 00:24:00,
2013-01-15 18:39:00,28.1,19.0,30.21,SSE,156,0.0,-999.0,68,-99.99,,,0.00,weatherlink.com 1.10,2013-01-16 00:39:00,
2013-01-15 18:54:00,27.3,19.0,30.21,SSE,156,0.0,-999.0,70,-99.99,,,0.00,weatherlink.com 1.10,2013-01-16 00:54:00,
2013-01-15 19:09:00,26.8,19.0,30.21,SSE,156,0.0,-999.0,71,-99.99,,,0.00,weatherlink.com 1.10,2013-01-16 01:09:00,
2013-01-15 19:24:00,26.4,19.0,30.20,SSE,156,0.0,-999.0,72,-99.99,,,0.00,weatherlink.com 1.10,2013-01-16 01:24:00,
2013-01-15 19:39:00,26.0,18.0,30.19,SSE,156,0.0,-999.0,73,-99.99,,,0.00,weatherlink.com 1.10,2013-01-16 01:39:00,
2013-01-15 19:54:00,25.6,18.0,30.19,SSE,156,0.0,-999.0,73,-99.99,,,0.00,weatherlink.com 1.10,2013-01-16 01:54:00,
2013-01-15 20:09:00,25.3,18.0,30.18,SSE,156,0.0,-999.0,74,-99.99,,,0.00,weatherlink.com 1.10,2013-01-16 02:09:00,
2013-01-15 20:24:00,25.4,18.0,30.17,SSE,156,0.0,-999.0,74,-99.99,,,0.00,weatherlink.com 1.10,2013-01-16 02:24:00,
2013-01-15 20:39:00,25.6,18.0,30.16,SSE,156,0.0,-999.0,73,-99.99,,,0.00,weatherlink.com 1.10,2013-01-16 02:39:00,
2013-01-15 20:54:00,25.5,18.0,30.16,SSE,156,0.0,-999.0,73,-99.99,,,0.00,weatherlink.com 1.10,2013-01-16 02:54:00,
2013-01-15 21:09:00,25.3,18.0,30.17,SSE,156,0.0,-999.0,74,-99.99,,,0.00,weatherlink.com 1.10,2013-01-16 03:09:00,
2013-01-15 21:24:00,24.9,18.0,30.17,SSE,156,0.0,-999.0,74,-99.99,,,0.00,weatherlink.com 1.10,2013-01-16 03:24:00,
2013-01-15 21:39:00,24.3,17.0,30.16,SSE,156,0.0,-999.0,75,-99.99,,,0.00,weatherlink.com 1.10,2013-01-16 03:39:00,
2013-01-15 21:55:00,23.7,18.0,30.15,SSE,156,0.0,-999.0,77,-99.99,,,0.00,weatherlink.com 1.10,2013-01-16 03:55:00,
2013-01-15 22:10:00,23.1,17.0,30.14,SSE,156,0.0,-999.0,78,-99.99,,,0.00,weatherlink.com 1.10,2013-01-16 04:10:00,
2013-01-15 22:25:00,22.5,17.0,30.14,SSE,156,0.0,-999.0,79,-99.99,,,0.00,weatherlink.com 1.10,2013-01-16 04:25:00,
2013-01-15 22:40:00,22.1,17.0,30.13,SSE,156,0.0,-999.0,79,-99.99,,,0.00,weatherlink.com 1.10,2013-01-16 04:40:00,
2013-01-15 22:55:00,21.9,18.0,30.12,SSE,156,1.0,-999.0,83,-99.99,,,0.00,weatherlink.com 1.10,2013-01-16 04:55:00,
2013-01-15 23:10:00,22.7,18.0,30.12,SSE,156,0.0,-999.0,82,-99.99,,,0.00,weatherlink.com 1.10,2013-01-16 05:10:00,
2013-01-15 23:25:00,22.8,18.0,30.12,SSE,156,0.0,-999.0,81,-99.99,,,0.00,weatherlink.com 1.10,2013-01-16 05:25:00,
2013-01-15 23:40:00,22.7,18.0,30.11,SSE,156,0.0,-999.0,82,-99.99,,,0.00,weatherlink.com 1.10,2013-01-16 05:40:00,
2013-01-15 23:55:00,23.9,19.0,30.10,SSE,157,0.0,-999.0,82,-99.99,,,0.00,weatherlink.com 1.10,2013-01-16 05:55:00,